DateTimeUTC,F1_A11,F1_S11,BsB_S11,BsG_S11,BsR_S11,BbsB_S11,BbsG_S11,BbsR_S11,BaB_A11,BaG_A11,BaR_A11,Tu_S11,T_S11,Uu_S11,U_S11,P_S11,T1_A11
2021-09-09T04:00:00Z,00000200,21000000,,,,,,,0000.17,0000.81,0000.25,16.9,24.3,,00.0,0661.1,30.8
2021-09-09T04:01:00Z,00000200,21000000,,,,,,,0000.40,-000.05,0000.01,16.9,24.3,,00.0,0661.1,30.8
2021-09-09T04:02:00Z,00000200,21000000,,,,,,,0000.06,-000.12,0000.15,17.0,24.3,,00.0,0661.1,30.9
2021-09-09T04:03:00Z,00000200,61000000,,,,,,,-000.08,-000.15,-000.22,17.0,24.4,,00.0,0661.1,30.9
2021-09-09T04:04:00Z,00000200,41000000,0000.59,0000.09,0000.20,0000.70,0000.49,0000.24,-000.21,0000.22,-000.23,17.4,24.2,,00.0,0662.0,30.9
2021-09-09T04:05:00Z,00000200,01000000,0000.58,0000.15,-000.21,-000.25,0000.21,-000.16,0000.25,0000.09,0000.26,17.5,24.1,,00.0,0662.0,30.9
2021-09-09T04:06:00Z,00000200,01000000,0000.41,0000.27,0000.39,0000.46,0000.36,0000.20,-000.23,0000.09,-000.09,17.6,24.2,,00.0,0662.0,30.9
2021-09-09T04:07:00Z,00000200,01000000,0000.27,-000.19,0000.29,0000.03,0000.13,0000.09,-000.11,-000.08,-000.04,17.6,24.2,,00.0,0662.0,30.9
2021-09-09T04:08:00Z,00000200,01000000,0000.27,0000.07,0000.20,0000.25,0000.15,0000.32,0000.25,0000.00,-000.07,17.6,24.2,,00.0,0662.0,30.9
2021-09-09T04:09:00Z,00000200,01000000,0000.56,0000.10,0000.00,0000.32,0000.40,0000.03,-000.08,0000.25,0000.27,17.7,24.2,,00.0,0662.0,30.9
2021-09-09T04:10:00Z,00000200,01000000,0000.48,-000.16,0000.39,0000.12,-000.16,-000.03,0000.19,-000.06,0000.13,17.7,24.2,,00.0,0662.0,30.9
2021-09-09T04:11:00Z,00000200,01000000,0000.16,0000.05,0000.22,-000.11,0000.20,-000.19,0000.16,-000.10,-000.13,17.6,24.2,,00.0,0662.0,30.9
2021-09-09T04:12:00Z,00000200,01000000,0000.50,0000.19,0000.07,0000.11,0000.01,0000.23,-000.04,-000.27,0000.00,17.6,24.1,,00.0,0662.0,30.9
2021-09-09T04:13:00Z,00000200,01000000,0000.44,-000.14,0000.02,-000.13,-000.14,0000.14,-000.15,0000.17,0000.05,17.6,24.1,,00.0,0662.0,30.9
2021-09-09T04:14:00Z,00000200,01000000,-000.34,0000.04,-000.07,0000.02,0000.06,-000.15,0000.00,0000.02,0000.04,17.7,24.1,,00.0,0662.0,30.9
2021-09-09T04:15:00Z,00000200,01000000,0000.18,0000.20,0000.18,-000.13,0000.05,-000.11,0000.11,0000.15,0000.16,17.7,24.1,,00.0,0661.9,30.9
2021-09-09T04:16:00Z,00000200,01000000,-000.33,0000.12,0000.34,0000.09,0000.09,0000.09,-000.24,-000.39,-000.39,17.7,24.2,,00.0,0661.9,30.9
2021-09-09T04:17:00Z,00000200,01000000,-000.80,0000.38,0000.43,0000.26,0000.05,0000.24,-000.26,0000.15,-000.14,17.7,24.2,,00.0,0661.9,30.9
2021-09-09T04:18:00Z,00000200,01000000,0000.59,0000.20,0000.14,0000.33,0000.36,0000.24,0000.15,-000.04,0000.08,17.8,24.2,,00.0,0662.0,30.9
2021-09-09T04:19:00Z,00000200,01000000,-000.24,0000.30,0000.28,0000.28,0000.39,-000.02,0000.13,0000.39,0000.20,17.8,24.2,,00.0,0662.0,30.9
2021-09-09T04:20:00Z,00000200,01000000,-000.21,0000.07,0000.05,-000.07,0000.06,0000.21,-000.06,-000.32,-000.08,17.8,24.2,,00.0,0662.0,30.9
2021-09-09T04:21:00Z,00000200,01000000,0000.55,0000.14,0000.51,-000.57,0000.16,0000.13,0000.17,0000.19,0000.09,17.8,24.2,,00.0,0662.0,30.9
2021-09-09T04:22:00Z,00000200,01000000,-000.15,0000.16,0000.04,0000.85,0000.33,0000.17,-000.05,0000.11,0000.09,17.9,24.2,,00.0,0662.0,30.9
2021-09-09T04:23:00Z,00000200,01000000,0000.08,0000.28,0000.13,0000.58,0000.06,0000.17,-000.03,-000.23,0000.12,17.9,24.2,,00.0,0662.0,30.9
2021-09-09T04:24:00Z,00000200,01000000,0000.15,0000.48,0000.37,0000.29,0000.23,0000.09,-000.05,-000.04,-000.14,17.8,24.2,,00.0,0662.0,30.9
2021-09-09T04:25:00Z,00000200,01000000,0001.12,0000.64,0000.43,0000.40,0000.14,0000.04,-000.31,-000.63,-000.75,17.7,24.2,,00.0,0661.9,30.9
2021-09-09T04:26:00Z,00000200,01000000,0000.19,0000.54,0000.40,-000.02,-000.09,0000.09,0000.42,0000.14,0000.73,17.6,24.1,,00.0,0661.9,30.9
2021-09-09T04:27:00Z,00000200,01000000,0000.64,0000.66,0000.71,0000.32,0000.12,0000.15,-000.08,0000.21,-000.17,17.5,24.1,,00.0,0661.9,30.8
2021-09-09T04:28:00Z,00000200,01000000,0001.17,0000.41,0000.51,0000.42,0000.22,0000.24,0000.27,0000.69,0000.31,17.5,24.1,,00.0,0661.9,30.8
2021-09-09T04:29:00Z,00000200,01000000,0000.28,0000.58,0000.48,0000.53,0000.16,0000.05,0000.07,0000.05,-000.18,17.5,24.1,,00.0,0661.9,30.8
2021-09-09T04:30:00Z,00000200,01000000,0000.83,0000.79,0000.60,0000.29,0000.15,-000.06,0000.30,0000.02,0000.23,17.6,24.1,,00.0,0661.9,30.9
2021-09-09T04:31:00Z,00000200,01000000,0001.11,0000.70,0000.41,-000.83,0000.23,0000.05,0000.09,-000.13,0000.31,17.6,24.1,,00.0,0661.9,30.9
2021-09-09T04:32:00Z,00000200,01000000,0000.56,0000.14,0000.37,-000.18,-000.01,0000.14,0000.12,0000.42,0000.14,17.6,24.1,,00.0,0661.9,30.9
2021-09-09T04:33:00Z,00000200,01000000,0001.01,0000.50,0000.32,0000.41,0000.42,0000.21,-000.02,0000.10,-000.15,17.7,24.1,,00.0,0661.9,30.9
2021-09-09T04:34:00Z,00000200,01000000,0000.70,0000.60,0000.42,0000.28,0000.01,0000.13,0000.08,-000.04,0000.46,17.7,24.2,,00.0,0661.9,30.9
2021-09-09T04:35:00Z,00000200,01000000,0000.52,0000.41,0000.37,-000.25,0000.29,0000.07,0000.35,0000.30,-000.21,17.8,24.2,,00.0,0661.9,30.9
2021-09-09T04:36:00Z,00000200,01000000,0001.29,0000.72,0000.63,-000.42,0000.08,0000.14,0000.28,0000.14,-000.00,17.8,24.2,,00.0,0661.9,30.9
2021-09-09T04:37:00Z,00000200,01000000,0000.01,0000.47,0000.59,0000.44,0000.37,0000.07,-000.11,0000.12,0000.38,17.8,24.2,,00.0,0661.9,30.9
2021-09-09T04:38:00Z,00000200,01000000,-000.54,0000.04,0000.46,0000.36,0000.28,0000.05,0000.25,-000.01,-000.18,17.8,24.2,,00.0,0661.9,30.9
2021-09-09T04:39:00Z,00000200,01000000,0000.64,0000.03,0000.21,0000.18,0000.24,-000.11,0000.36,0000.81,0000.59,17.9,24.2,,00.0,0661.9,30.9
2021-09-09T04:40:00Z,00000200,01000000,-000.13,0000.13,0000.17,-000.02,0000.23,-000.02,-000.04,-000.53,-000.08,17.9,24.2,,00.0,0661.9,30.9
2021-09-09T04:41:00Z,00000200,01000000,0000.09,0000.38,0000.24,-000.07,0000.20,0000.23,-000.21,0000.18,0000.17,17.8,24.2,,00.0,0661.9,30.9
2021-09-09T04:42:00Z,00000200,01000000,-000.38,-000.17,0000.25,0000.97,-000.15,0000.18,0000.33,-000.11,-000.24,17.8,24.2,,00.0,0661.9,30.9
2021-09-09T04:43:00Z,00000200,01000000,0000.60,0000.06,0000.01,-000.29,0000.33,0000.09,-000.19,0000.12,0000.15,17.8,24.2,,00.0,0661.9,30.9
2021-09-09T04:44:00Z,00000200,01000000,-000.09,-000.13,0000.29,0000.17,0000.10,-000.12,0000.16,0000.13,-000.09,17.8,24.2,,00.0,0661.9,30.9
2021-09-09T04:45:00Z,00000200,01000000,-000.64,0000.03,0000.17,0000.20,-000.05,0000.09,0000.13,0000.10,0000.38,17.8,24.2,,00.0,0661.9,30.9
2021-09-09T04:46:00Z,00000200,01000000,-000.54,-000.22,0000.23,-000.38,-000.01,-000.29,0000.03,-000.13,-000.23,17.8,24.2,,00.0,0661.9,30.9
2021-09-09T04:47:00Z,00000200,01000000,0000.62,0000.03,0000.22,-000.20,-000.08,0000.37,0000.08,0000.36,0000.22,17.9,24.2,,00.0,0661.9,30.9
2021-09-09T04:48:00Z,00000200,01000000,0000.53,-000.01,-000.08,0000.14,-000.09,-000.21,0000.33,-000.23,0000.05,17.9,24.3,,00.0,0661.9,30.9
2021-09-09T04:49:00Z,00000200,01000000,-000.58,0000.05,-000.00,-000.02,-000.04,-000.24,-000.05,0000.24,-000.11,17.9,24.3,,00.0,0661.9,30.9
2021-09-09T04:50:00Z,00000200,01000000,0000.24,-000.08,0000.05,-000.01,0000.07,-000.41,-000.16,-000.19,0000.31,18.0,24.3,,00.0,0661.9,30.9
2021-09-09T04:51:00Z,00000200,01000000,0000.66,-000.07,0000.08,-000.14,0000.38,-000.05,-000.07,0000.16,-000.30,18.0,24.3,,00.0,0661.9,30.9
2021-09-09T04:52:00Z,00000200,01000000,-000.51,-000.19,-000.00,0000.02,0000.09,-000.07,-000.21,-000.11,-000.26,18.0,24.3,,00.0,0662.0,30.9
2021-09-09T04:53:00Z,00000200,01000000,-000.14,0000.10,0000.31,0000.32,-000.27,0000.13,-000.02,-000.29,0000.15,18.0,24.3,,00.0,0662.0,30.9
2021-09-09T04:54:00Z,00000200,01000000,0000.72,-000.32,0000.40,-000.12,0000.15,-000.00,-000.25,-000.14,-000.29,18.0,24.3,,00.0,0662.0,30.9
2021-09-09T04:55:00Z,00000200,01000000,0000.40,-000.13,-000.06,-000.46,0000.02,0000.03,-000.13,-000.13,-000.18,18.0,24.3,,00.0,0662.0,30.9
2021-09-09T04:56:00Z,00000200,01000000,-000.06,-000.25,-000.03,0000.45,-000.01,-000.07,-000.14,-000.05,-000.09,17.9,24.3,,00.0,0661.9,30.9
2021-09-09T04:57:00Z,00000200,41000000,,,,,,,0000.64,0000.42,0000.61,17.9,24.3,,00.0,0661.9,30.9
2021-09-09T04:58:00Z,00000200,61000000,,,,,,,0000.05,0000.03,-000.08,17.4,24.4,,00.0,0660.9,30.9
2021-09-09T04:59:00Z,00000200,21000000,,,,,,,-000.12,0000.25,-000.04,17.4,24.5,,00.0,0660.9,30.9
